231  
ASUS41 KALY 070910  
RWRALY  
 
NEW YORK STATE HOURLY WEATHER ROUNDUP  
NATIONAL WEATHER SERVICE ALBANY NY  
500 AM EDT THU JUL 07 2022  
 
NOTE: "FAIR" INDICATES FEW OR NO CLOUDS BELOW 12,000 FEET WITH NO  
SIGNIFICANT WEATHER AND/OR NO S TO VISIBILITY
.  
 
NYZ032-033-038>043-046>054-057>066-NYZ062>081-082-084-071000-  
EAST  
 
 
CITY SKY/WX TMP DP RH WIND PRES REMARKS
 
ALBANY PTCLDY 60 56 86 W3 30.01S  
GLENS FALLS CLOUDY 53 53 100 CALM 30.02R  
POUGHKEEPSIE MOCLDY 64 60 87 CALM 29.99R  
NEWBURGH MOCLDY 66 59 77 NE6 30.00R  
MONTGOMERY PTCLDY 62 58 86 N8 29.99S  
WHITE PLAINS MOCLDY 70 61 73 E5 29.99R  
ISLIP PTCLDY 69 63 81 E6 29.97R  
NEW YORK CITY MOCLDY 71 63 75 NE10 29.97R  
CENTRAL PARK CLOUDY 73 62 68 VRB3 30.00R  

 
 
NYZ005>009-017-018-044>046-055-056-071000-  
CENTRAL  
 
 
CITY SKY/WX TMP DP RH WIND PRES REMARKS
 
FULTON CLEAR 55 53 93 CALM 30.02S  
SYRACUSE CLEAR 58 55 90 E3 30.03R  
ROME CLEAR 54 53 97 CALM 30.04R  
ELMIRA MOCLDY 60 58 92 CALM 30.01S  
BINGHAMTON CLEAR 56 55 97 E6 30.02S  
MONTICELLO MOCLDY 59 57 93 CALM 30.04R  

 
 
NYZ026>034-041>043-087-071000-  
NORTH  
 
 
CITY SKY/WX TMP DP RH WIND PRES REMARKS
 
WATERTOWN CLEAR 49 48 97 CALM 30.03S  
FORT DRUM NOT AVBL  
OGDENSBURG MOCLDY 50 50 100 CALM 30.01S  
MASSENA FOG 49 48 97 CALM 30.04S VSB 1/4  
SARANAC LAKE FOG 48 48 100 CALM 30.05R VSB<1/4  
PLATTSBURGH CLEAR 53 52 96 CALM 30.02R  

 
 
NYZ001>004-010>016-019>021-085-071000-  
WEST  
 
 
CITY SKY/WX TMP DP RH WIND PRES REMARKS
 
NIAGARA FALLS CLEAR 58 55 90 CALM 30.02S  
BUFFALO CLEAR 59 55 87 N5 30.03R  
DUNKIRK CLOUDY 58 56 93 CALM 30.02R  
JAMESTOWN CLEAR 61 57 87 E5 30.05R  
WELLSVILLE CLEAR 59 55 87 E3 30.06S  
ROCHESTER CLEAR 56 54 93 SW3 30.04R  
PENN YAN CLOUDY 57 54 89 CALM 30.03S  

 
 
KEY  
WCI = WIND CHILL INDEX  
VSB = VISIBILITY  
HX = HEAT INDEX  

 
 
 
CLICK HERE TO GO TO PREVIOUS BULLETINS.

The Nexlab NY Page
The Nexlab VT Page
The Nexlab MA Page
The Nexlab CT Page Main Text Page